HK2201G SKPE-SKPE

Flight info

Callsign HK2201G
Flight time 0h 45m
Altitude 5500
Route ALCALA QUIMBAYA MONTENEGRO AXM LA TEBAIDA LA MONTANA OBANDO ZARAGOZA CRC LA VIRGINIA PEI
Aircraft P28A/L-S/B2

Departure

Time 2026-04-14 03:10
Airport Matecaña International Airport (SKPE)

Arrival

Time 2026-04-14 03:55
Airport Matecaña International Airport (SKPE)
Time Latitude Longitude Altitude Speed Heading
2026-04-14 02:52 4.81373 -75.73909 4419 ft 0 kts 128°
2026-04-14 02:53 4.81372 -75.73907 4419 ft 1 kts 127°
2026-04-14 02:54 4.81367 -75.73891 4419 ft 2 kts 48°
2026-04-14 02:54 4.81373 -75.73886 4420 ft 3 kts 37°
2026-04-14 02:54 4.81351 -75.73880 4419 ft 5 kts 203°
2026-04-14 02:54 4.81342 -75.73889 4419 ft 0 kts 243°
2026-04-14 03:04 4.81330 -75.73901 4419 ft 6 kts 222°
2026-04-14 03:04 4.81288 -75.73933 4418 ft 8 kts 160°
2026-04-14 03:04 4.81292 -75.73884 4419 ft 8 kts 71°
2026-04-14 03:04 4.81314 -75.73813 4421 ft 14 kts 71°
2026-04-14 03:05 4.81352 -75.73699 4422 ft 21 kts 72°
2026-04-14 03:05 4.81403 -75.73539 4423 ft 25 kts 72°
2026-04-14 03:05 4.81456 -75.73375 4423 ft 26 kts 72°
2026-04-14 03:05 4.81517 -75.73185 4423 ft 28 kts 71°
2026-04-14 03:06 4.81574 -75.73074 4423 ft 11 kts 49°
2026-04-14 03:06 4.81566 -75.73056 4423 ft 8 kts 231°
2026-04-14 03:06 4.81547 -75.73093 4423 ft 0 kts 252°
2026-04-14 03:08 4.81547 -75.73094 4423 ft 4 kts 251°
2026-04-14 03:08 4.81493 -75.73264 4423 ft 46 kts 252°
2026-04-14 03:09 4.81362 -75.73647 4484 ft 64 kts 253°
2026-04-14 03:09 4.81205 -75.74067 4629 ft 65 kts 255°
2026-04-14 03:09 4.81032 -75.74518 4752 ft 72 kts 256°
2026-04-14 03:09 4.80836 -75.75005 4864 ft 76 kts 254°
2026-04-14 03:10 4.80631 -75.75526 5070 ft 80 kts 252°
2026-04-14 03:10 4.80466 -75.76043 5325 ft 82 kts 256°
2026-04-14 03:10 4.80266 -75.76595 5545 ft 82 kts 237°
2026-04-14 03:10 4.79787 -75.76960 5642 ft 90 kts 196°
2026-04-14 03:11 4.79221 -75.76939 5845 ft 83 kts 153°
2026-04-14 03:11 4.78868 -75.76521 6021 ft 81 kts 101°
2026-04-14 03:11 4.78963 -75.75951 6110 ft 89 kts 77°
2026-04-14 03:11 4.78985 -75.75295 6153 ft 100 kts 97°
2026-04-14 03:12 4.78784 -75.74580 6093 ft 115 kts 121°
2026-04-14 03:12 4.78245 -75.74010 6217 ft 107 kts 139°
2026-04-14 03:12 4.77647 -75.73562 6248 ft 108 kts 143°
2026-04-14 03:12 4.77070 -75.73089 6344 ft 103 kts 137°
2026-04-14 03:13 4.76574 -75.72672 6554 ft 97 kts 140°
2026-04-14 03:13 4.76030 -75.72251 6615 ft 97 kts 143°
2026-04-14 03:13 4.75490 -75.71878 6628 ft 88 kts 142°
2026-04-14 03:13 4.75030 -75.71479 6617 ft 84 kts 136°
2026-04-14 03:14 4.74623 -75.71051 6583 ft 87 kts 129°
2026-04-14 03:14 4.74214 -75.70596 6600 ft 86 kts 136°
2026-04-14 03:14 4.73659 -75.70363 6575 ft 93 kts 178°
2026-04-14 03:14 4.73017 -75.70518 6567 ft 96 kts 200°
2026-04-14 03:15 4.72422 -75.70794 6592 ft 94 kts 204°
2026-04-14 03:15 4.71790 -75.71031 6557 ft 97 kts 193°
2026-04-14 03:15 4.71150 -75.71188 6567 ft 95 kts 190°
2026-04-14 03:15 4.70494 -75.71356 6577 ft 95 kts 193°
2026-04-14 03:16 4.69850 -75.71535 6598 ft 95 kts 192°
2026-04-14 03:16 4.69199 -75.71709 6592 ft 98 kts 191°
2026-04-14 03:16 4.68548 -75.71876 6609 ft 99 kts 193°
2026-04-14 03:16 4.67888 -75.72072 6600 ft 101 kts 193°
2026-04-14 03:17 4.67435 -75.72207 6582 ft 103 kts 195°
2026-04-14 03:17 4.65812 -75.72669 6516 ft 101 kts 195°
2026-04-14 03:17 4.65150 -75.72865 6488 ft 99 kts 194°
2026-04-14 03:18 4.64480 -75.73044 6462 ft 99 kts 192°
2026-04-14 03:18 4.63811 -75.73214 6458 ft 98 kts 193°
2026-04-14 03:18 4.63152 -75.73400 6467 ft 96 kts 192°
2026-04-14 03:18 4.62515 -75.73572 6474 ft 95 kts 190°
2026-04-14 03:19 4.61871 -75.73746 6513 ft 96 kts 192°
2026-04-14 03:19 4.61215 -75.73930 6510 ft 97 kts 190°
2026-04-14 03:19 4.60561 -75.74070 6515 ft 96 kts 186°
2026-04-14 03:19 4.59902 -75.74206 6539 ft 97 kts 187°
2026-04-14 03:20 4.59236 -75.74345 6533 ft 98 kts 188°
2026-04-14 03:20 4.58556 -75.74480 6550 ft 98 kts 186°
2026-04-14 03:20 4.57889 -75.74604 6549 ft 96 kts 187°
2026-04-14 03:20 4.57217 -75.74737 6362 ft 100 kts 187°
2026-04-14 03:21 4.56547 -75.74862 6253 ft 99 kts 188°
2026-04-14 03:21 4.55860 -75.75000 6126 ft 97 kts 188°
2026-04-14 03:21 4.55194 -75.75116 5952 ft 100 kts 186°
2026-04-14 03:21 4.54525 -75.75231 5809 ft 97 kts 186°
2026-04-14 03:22 4.53859 -75.75337 5671 ft 98 kts 183°
2026-04-14 03:22 4.53175 -75.75374 5578 ft 101 kts 178°
2026-04-14 03:22 4.52443 -75.75375 5429 ft 106 kts 178°
2026-04-14 03:22 4.51701 -75.75373 5300 ft 110 kts 178°
2026-04-14 03:23 4.50941 -75.75387 5123 ft 107 kts 182°
2026-04-14 03:23 4.50223 -75.75492 4917 ft 100 kts 188°
2026-04-14 03:23 4.49603 -75.75633 4786 ft 87 kts 189°
2026-04-14 03:23 4.49033 -75.75754 4630 ft 80 kts 190°
2026-04-14 03:24 4.48494 -75.75858 4507 ft 78 kts 191°
2026-04-14 03:24 4.47971 -75.75976 4365 ft 74 kts 194°
2026-04-14 03:24 4.47643 -75.76051 4351 ft 74 kts 192°
2026-04-14 03:24 4.47152 -75.76170 4261 ft 72 kts 193°
2026-04-14 03:25 4.46653 -75.76285 4180 ft 77 kts 194°
2026-04-14 03:25 4.46111 -75.76409 4044 ft 79 kts 195°
2026-04-14 03:25 4.45626 -75.76526 3988 ft 64 kts 193°
2026-04-14 03:25 4.45160 -75.76639 4093 ft 71 kts 194°
2026-04-14 03:26 4.44676 -75.76769 4296 ft 74 kts 193°
2026-04-14 03:26 4.44172 -75.76933 4500 ft 74 kts 196°
2026-04-14 03:26 4.43680 -75.77129 4655 ft 88 kts 201°
2026-04-14 03:26 4.43142 -75.77427 4879 ft 89 kts 217°
2026-04-14 03:27 4.42886 -75.78011 5045 ft 96 kts 269°
2026-04-14 03:27 4.43047 -75.78623 5267 ft 81 kts 289°
2026-04-14 03:27 4.43149 -75.79135 5523 ft 72 kts 280°
2026-04-14 03:27 4.43228 -75.79667 5579 ft 81 kts 283°
2026-04-14 03:28 4.43252 -75.80180 5789 ft 73 kts 260°
2026-04-14 03:28 4.43175 -75.80721 5896 ft 78 kts 269°
2026-04-14 03:28 4.43151 -75.81248 6044 ft 76 kts 274°
2026-04-14 03:28 4.43159 -75.81764 6197 ft 75 kts 278°
2026-04-14 03:29 4.43241 -75.82328 6278 ft 85 kts 271°
2026-04-14 03:29 4.43166 -75.82938 6310 ft 93 kts 267°
2026-04-14 03:29 4.43136 -75.83593 6411 ft 95 kts 271°
2026-04-14 03:29 4.43129 -75.84257 6541 ft 93 kts 272°
2026-04-14 03:30 4.43165 -75.84917 6577 ft 98 kts 279°
2026-04-14 03:30 4.43276 -75.85599 6557 ft 101 kts 283°
2026-04-14 03:30 4.43437 -75.86293 6554 ft 103 kts 286°
2026-04-14 03:30 4.43680 -75.86983 6580 ft 106 kts 294°
2026-04-14 03:31 4.44044 -75.87637 6550 ft 108 kts 300°
2026-04-14 03:31 4.44464 -75.88254 6560 ft 106 kts 304°
2026-04-14 03:31 4.44890 -75.88854 6525 ft 107 kts 303°
2026-04-14 03:31 4.45327 -75.89439 6529 ft 106 kts 305°
2026-04-14 03:32 4.45794 -75.90017 6529 ft 107 kts 308°
2026-04-14 03:32 4.46246 -75.90610 6542 ft 107 kts 302°
2026-04-14 03:32 4.46652 -75.91234 6577 ft 109 kts 301°
2026-04-14 03:32 4.47057 -75.91864 6542 ft 111 kts 303°
2026-04-14 03:33 4.47514 -75.92467 6487 ft 108 kts 308°
2026-04-14 03:33 4.47984 -75.93004 6489 ft 99 kts 305°
2026-04-14 03:33 4.48371 -75.93580 6344 ft 99 kts 301°
2026-04-14 03:33 4.48779 -75.94161 6267 ft 103 kts 306°
2026-04-14 03:34 4.49722 -75.95315 6110 ft 109 kts 315°
2026-04-14 03:34 4.50376 -75.95730 6004 ft 112 kts 328°
2026-04-14 03:34 4.51074 -75.96096 5900 ft 114 kts 330°
2026-04-14 03:35 4.51790 -75.96452 5792 ft 116 kts 332°
2026-04-14 03:35 4.52476 -75.96871 5633 ft 121 kts 325°
2026-04-14 03:35 4.53157 -75.97322 5531 ft 118 kts 324°
2026-04-14 03:35 4.53850 -75.97771 5386 ft 119 kts 326°
2026-04-14 03:36 4.54550 -75.98220 5234 ft 119 kts 326°
2026-04-14 03:36 4.55250 -75.98674 5068 ft 122 kts 323°
2026-04-14 03:36 4.55943 -75.99156 4937 ft 120 kts 324°
2026-04-14 03:36 4.56634 -75.99606 4824 ft 119 kts 324°
2026-04-14 03:37 4.57366 -76.00016 4645 ft 124 kts 339°
2026-04-14 03:37 4.58217 -76.00073 4519 ft 122 kts
2026-04-14 03:37 4.59039 -75.99967 4437 ft 118 kts
2026-04-14 03:37 4.59854 -75.99828 4289 ft 119 kts
2026-04-14 03:38 4.60662 -75.99666 4159 ft 117 kts 11°
2026-04-14 03:38 4.61442 -75.99480 4032 ft 113 kts 11°
2026-04-14 03:38 4.62189 -75.99290 3955 ft 111 kts 12°
2026-04-14 03:38 4.62924 -75.99077 3950 ft 108 kts 16°
2026-04-14 03:39 4.63629 -75.98831 3939 ft 107 kts 19°
2026-04-14 03:39 4.64324 -75.98554 3921 ft 108 kts 21°
2026-04-14 03:39 4.65005 -75.98261 3936 ft 106 kts 22°
2026-04-14 03:39 4.65657 -75.97942 3924 ft 105 kts 26°
2026-04-14 03:40 4.66312 -75.97608 3883 ft 106 kts 25°
2026-04-14 03:40 4.66958 -75.97306 3905 ft 99 kts 24°
2026-04-14 03:40 4.67578 -75.97007 3869 ft 100 kts 22°
2026-04-14 03:40 4.68201 -75.96704 3875 ft 99 kts 22°
2026-04-14 03:41 4.68792 -75.96437 3871 ft 87 kts 21°
2026-04-14 03:41 4.69347 -75.96220 3847 ft 87 kts 13°
2026-04-14 03:41 4.69949 -75.96097 3847 ft 87 kts
2026-04-14 03:41 4.70536 -75.96023 3833 ft 83 kts
2026-04-14 03:42 4.71104 -75.95969 3769 ft 80 kts
2026-04-14 03:42 4.71654 -75.95911 3682 ft 78 kts
2026-04-14 03:42 4.72197 -75.95863 3619 ft 77 kts
2026-04-14 03:42 4.72744 -75.95821 3513 ft 82 kts
2026-04-14 03:43 4.73309 -75.95776 3380 ft 81 kts
2026-04-14 03:43 4.73866 -75.95758 3226 ft 77 kts
2026-04-14 03:43 4.74400 -75.95716 3122 ft 76 kts
2026-04-14 03:43 4.74921 -75.95679 3003 ft 75 kts
2026-04-14 03:44 4.75362 -75.95639 2984 ft 38 kts
2026-04-14 03:44 4.75570 -75.95625 2987 ft 44 kts
2026-04-14 03:44 4.75991 -75.95587 3036 ft 71 kts
2026-04-14 03:44 4.76498 -75.95530 3243 ft 71 kts
2026-04-14 03:45 4.77007 -75.95458 3458 ft 75 kts
2026-04-14 03:45 4.77540 -75.95389 3607 ft 83 kts
2026-04-14 03:45 4.78101 -75.95312 3856 ft 82 kts
2026-04-14 03:45 4.78600 -75.95031 4079 ft 83 kts 42°
2026-04-14 03:46 4.78980 -75.94577 4270 ft 82 kts 45°
2026-04-14 03:46 4.79381 -75.94151 4417 ft 87 kts 36°
2026-04-14 03:46 4.79883 -75.93865 4629 ft 84 kts 23°
2026-04-14 03:46 4.80402 -75.93609 4866 ft 79 kts 21°
2026-04-14 03:47 4.80898 -75.93279 4972 ft 87 kts 49°
2026-04-14 03:47 4.81126 -75.92727 5121 ft 89 kts 89°
2026-04-14 03:47 4.80919 -75.92170 5282 ft 85 kts 131°
2026-04-14 03:47 4.80530 -75.91752 5446 ft 84 kts 134°
2026-04-14 03:48 4.80122 -75.91271 5513 ft 95 kts 128°
2026-04-14 03:48 4.79764 -75.90702 5545 ft 97 kts 123°
2026-04-14 03:48 4.79360 -75.90151 5566 ft 99 kts 129°
2026-04-14 03:48 4.78911 -75.89616 5573 ft 102 kts 131°
2026-04-14 03:49 4.78445 -75.89082 5595 ft 101 kts 133°
2026-04-14 03:49 4.77936 -75.88562 5559 ft 105 kts 136°
2026-04-14 03:49 4.77475 -75.88003 5582 ft 104 kts 122°
2026-04-14 03:49 4.77154 -75.87353 5566 ft 106 kts 116°
2026-04-14 03:50 4.76994 -75.86637 5511 ft 109 kts 83°
2026-04-14 03:50 4.77240 -75.85918 5497 ft 108 kts 58°
2026-04-14 03:50 4.77621 -75.85279 5480 ft 108 kts 60°
2026-04-14 03:50 4.77971 -75.84604 5444 ft 109 kts 63°
2026-04-14 03:51 4.78203 -75.83887 5462 ft 107 kts 77°
2026-04-14 03:51 4.78344 -75.83156 5490 ft 106 kts 77°
2026-04-14 03:51 4.78595 -75.82475 5506 ft 105 kts 61°
2026-04-14 03:51 4.78852 -75.81801 5508 ft 105 kts 74°
2026-04-14 03:52 4.78964 -75.81092 5530 ft 101 kts 78°
2026-04-14 03:52 4.79237 -75.80435 5494 ft 104 kts 67°
2026-04-14 03:52 4.79431 -75.79745 5461 ft 102 kts 81°
2026-04-14 03:52 4.79545 -75.79056 5286 ft 100 kts 74°
2026-04-14 03:53 4.79764 -75.78408 5086 ft 96 kts 63°
2026-04-14 03:53 4.80043 -75.77819 4917 ft 90 kts 69°
2026-04-14 03:53 4.80233 -75.77224 4743 ft 91 kts 72°
2026-04-14 03:53 4.80395 -75.76632 4667 ft 84 kts 75°
2026-04-14 03:54 4.80584 -75.76055 4618 ft 93 kts 72°
2026-04-14 03:54 4.80786 -75.75428 4522 ft 94 kts 72°
2026-04-14 03:54 4.80995 -75.74805 4409 ft 92 kts 73°
2026-04-14 03:54 4.81172 -75.74252 4401 ft 73 kts 72°
2026-04-14 03:55 4.81283 -75.73912 4418 ft 26 kts 72°
2026-04-14 03:55 4.81325 -75.73780 4421 ft 15 kts 72°
2026-04-14 03:55 4.81364 -75.73749 4422 ft 1 kts 347°
2026-04-14 03:55 4.81382 -75.73755 4422 ft 7 kts 341°
2026-04-14 03:56 4.81428 -75.73786 4421 ft 9 kts 262°
2026-04-14 03:56 4.81413 -75.73833 4420 ft 7 kts 253°
2026-04-14 03:56 4.81399 -75.73874 4419 ft 6 kts 242°
2026-04-14 03:56 4.81371 -75.73887 4419 ft 4 kts 209°
2026-04-14 03:57 4.81359 -75.73913 4418 ft 4 kts 263°
2026-04-14 03:57 4.81362 -75.73920 4418 ft 2 kts 303°
2026-04-14 03:57 4.81371 -75.73925 4418 ft 3 kts 54°
2026-04-14 03:57 4.81374 -75.73918 4418 ft 0 kts 70°
2026-04-14 03:58 4.81374 -75.73909 4419 ft 1 kts 134°
2026-04-14 03:58 4.81373 -75.73908 4419 ft 0 kts 133°